This is the latest recevied weather packets stored in our database for station/object N5ZPR. If no packets are shown the sender has not sent any weather packets the latest 10 day(s).
| Time | Temp. | Humidity | Pressure | Rain* | Wind** | Luminosity | Snow |
|---|---|---|---|---|---|---|---|
| 1777480803 | 16.11° C | 80% | 1013.4 hPa | 0 mm | - | - | - |
| 1777472404 | 15.56° C | 78% | 1012.8 hPa | 0 mm | - | - | - |
| 1777467603 | 16.11° C | 76% | 1012.3 hPa | 0 mm | - | - | - |
| 1777462804 | 17.22° C | 75% | 1010.9 hPa | 0 mm | - | - | - |
| 1777461604 | 17.78° C | 77% | 1011 hPa | 0 mm | - | - | - |
| 1777458004 | 18.89° C | 81% | 1010.5 hPa | 0 mm | - | - | - |
| 1777456803 | 18.89° C | 82% | 1010.4 hPa | 0 mm | - | - | - |
| 1777441804 | 22.22° C | 88% | 1009.9 hPa | 0 mm | - | - | - |
| 1777440003 | 22.78° C | 90% | 1009.9 hPa | 0 mm | - | - | - |
| 1777435804 | 22.78° C | 90% | 1009.7 hPa | 0 mm | - | - | - |
| 1777432204 | 23.33° C | 90% | 1009.1 hPa | 0 mm | - | - | - |
| 1777428604 | 24.44° C | 92% | 1006.7 hPa | 0 mm | - | - | - |
| 1777417804 | 26.67° C | 84% | 1006.8 hPa | 0 mm | - | - | - |
| 1777417203 | 26.67° C | 83% | 1007 hPa | 0 mm | - | - | - |
| 1777416604 | 26.67° C | 83% | 1007 hPa | 0 mm | - | - | - |
| 1777411204 | 28.33° C | 76% | 1007.6 hPa | 0 mm | - | - | - |
| 1777405203 | 28.33° C | 77% | 1008.4 hPa | 0 mm | - | - | - |
| 1777398603 | 27.22° C | 83% | 1010 hPa | 0 mm | - | - | - |
| 1777395604 | 26.11° C | 85% | 1010.2 hPa | 0 mm | - | - | - |
| 1777390803 | 25.56° C | 87% | 1008.9 hPa | 0 mm | - | - | - |
| 1777389604 | 25.56° C | 88% | 1008.9 hPa | 0 mm | - | - | - |
| 1777386003 | 24.44° C | 91% | 1008.9 hPa | 0 mm | - | - | - |
| 1777384803 | 24.44° C | 91% | 1008.9 hPa | 0 mm | - | - | - |
| 1777383604 | 24.44° C | 91% | 1008.9 hPa | 0 mm | - | - | - |
| 1777380004 | 23.89° C | 91% | 1008.6 hPa | 0 mm | - | - | - |
* Rain latest hour (hover to see other rain measurements)
** Current wind speed in m/s (hover to see current wind gust speed)